Time,TemperatureF,DewpointF,PressureIn,WindDirection,WindDirectionDegrees,WindSpeedMPH,WindSpeedGustMPH,Humidity,HourlyPrecipIn,Conditions,Clouds,dailyrainin,SoftwareType,DateUTC
2013-08-01 00:29:00,55.0,-99.9,-100.00,SW,218,0.0,0.0,-999,-99.99,,,-99.99,,2013-08-01 08:29:00,
2013-08-01 00:48:00,55.0,-99.9,-100.00,SW,218,0.0,0.0,-999,-99.99,,,-99.99,,2013-08-01 08:48:00,
2013-08-01 02:34:00,53.0,-99.9,-100.00,SW,218,0.0,0.0,-999,-99.99,,,-99.99,,2013-08-01 10:34:00,
2013-08-01 02:54:00,51.0,-99.9,-100.00,SW,218,0.0,0.0,-999,-99.99,,,-99.99,,2013-08-01 10:54:00,
2013-08-01 03:25:00,51.0,-99.9,-100.00,SW,218,0.0,0.0,-999,-99.99,,,-99.99,,2013-08-01 11:25:00,
2013-08-01 03:38:00,51.0,-99.9,-100.00,SW,218,0.0,0.0,-999,-99.99,,,-99.99,,2013-08-01 11:38:00,
2013-08-01 03:48:00,51.0,-99.9,-100.00,SW,218,0.0,0.0,-999,-99.99,,,-99.99,,2013-08-01 11:48:00,
2013-08-01 07:55:00,58.0,-99.9,-100.00,SW,218,0.0,0.0,-999,-99.99,,,-99.99,,2013-08-01 15:55:00,
2013-08-01 08:23:00,58.0,-99.9,-100.00,SW,218,0.0,0.0,-999,-99.99,,,-99.99,,2013-08-01 16:23:00,
2013-08-01 08:54:00,58.0,-99.9,-100.00,SW,218,0.0,0.0,-999,-99.99,,,-99.99,,2013-08-01 16:54:00,
2013-08-01 09:55:00,62.0,-99.9,-100.00,SW,218,0.0,0.0,-999,-99.99,,,-99.99,,2013-08-01 17:55:00,
2013-08-01 10:19:00,62.0,-99.9,-100.00,SW,218,0.0,0.0,-999,-99.99,,,-99.99,,2013-08-01 18:19:00,
2013-08-01 10:55:00,61.0,-99.9,-100.00,North,354,0.0,0.0,-999,-99.99,,,-99.99,,2013-08-01 18:55:00,
2013-08-01 11:36:00,61.0,-99.9,-100.00,North,354,0.0,0.0,-999,-99.99,,,-99.99,,2013-08-01 19:36:00,
2013-08-01 11:46:00,61.0,-99.9,-100.00,North,354,0.0,0.0,-999,-99.99,,,-99.99,,2013-08-01 19:46:00,
2013-08-01 16:56:00,68.0,-99.9,-100.00,NNE,12,0.0,0.0,-999,-99.99,,,-99.99,,2013-08-02 00:56:00,
2013-08-01 17:19:00,68.0,-99.9,-100.00,NNE,12,0.0,0.0,-999,-99.99,,,-99.99,,2013-08-02 01:19:00,
2013-08-01 17:32:00,68.0,-99.9,-100.00,NNE,12,0.0,0.0,-999,-99.99,,,-99.99,,2013-08-02 01:32:00,
2013-08-01 17:43:00,68.0,-99.9,-100.00,NNE,12,0.0,0.0,-999,-99.99,,,-99.99,,2013-08-02 01:43:00,
2013-08-01 17:50:00,68.0,-99.9,-100.00,NNE,12,0.0,0.0,-999,-99.99,,,-99.99,,2013-08-02 01:50:00,
2013-08-01 18:28:00,71.0,-99.9,-100.00,West,265,4.0,6.0,-999,-99.99,,,-99.99,,2013-08-02 02:28:00,
2013-08-01 18:38:00,71.0,-99.9,-100.00,West,265,4.0,6.0,-999,-99.99,,,-99.99,,2013-08-02 02:38:00,
2013-08-01 18:45:00,71.0,-99.9,-100.00,West,265,4.0,6.0,-999,-99.99,,,-99.99,,2013-08-02 02:45:00,
2013-08-01 18:55:00,71.0,-99.9,-100.00,West,265,4.0,6.0,-999,-99.99,,,-99.99,,2013-08-02 02:55:00,
2013-08-01 19:00:00,71.0,-99.9,-100.00,South,176,2.0,4.0,-999,-99.99,,,-99.99,,2013-08-02 03:00:00,
2013-08-01 19:13:00,71.0,-99.9,-100.00,South,176,2.0,4.0,-999,-99.99,,,-99.99,,2013-08-02 03:13:00,
2013-08-01 19:23:00,71.0,-99.9,-100.00,South,176,2.0,4.0,-999,-99.99,,,-99.99,,2013-08-02 03:23:00,
2013-08-01 19:42:00,71.0,-99.9,-100.00,South,176,2.0,4.0,-999,-99.99,,,-99.99,,2013-08-02 03:42:00,
2013-08-01 19:54:00,71.0,-99.9,-100.00,South,176,2.0,4.0,-999,-99.99,,,-99.99,,2013-08-02 03:54:00,
2013-08-01 20:12:00,69.0,-99.9,-100.00,NW,320,0.0,0.0,-999,-99.99,,,-99.99,,2013-08-02 04:12:00,
2013-08-01 20:22:00,69.0,-99.9,-100.00,NW,320,0.0,0.0,-999,-99.99,,,-99.99,,2013-08-02 04:22:00,
2013-08-01 20:33:00,69.0,-99.9,-100.00,NW,320,0.0,0.0,-999,-99.99,,,-99.99,,2013-08-02 04:33:00,
2013-08-01 20:43:00,69.0,-99.9,-100.00,NW,320,0.0,0.0,-999,-99.99,,,-99.99,,2013-08-02 04:43:00,
2013-08-01 20:53:00,69.0,-99.9,-100.00,NW,320,0.0,0.0,-999,-99.99,,,-99.99,,2013-08-02 04:53:00,
2013-08-01 21:12:00,67.0,-99.9,-100.00,NNE,21,0.0,4.0,-999,-99.99,,,-99.99,,2013-08-02 05:12:00,
2013-08-01 21:22:00,67.0,-99.9,-100.00,NNE,21,0.0,4.0,-999,-99.99,,,-99.99,,2013-08-02 05:22:00,
2013-08-01 21:32:00,67.0,-99.9,-100.00,NNE,21,0.0,4.0,-999,-99.99,,,-99.99,,2013-08-02 05:32:00,
2013-08-01 21:43:00,67.0,-99.9,-100.00,NNE,21,0.0,4.0,-999,-99.99,,,-99.99,,2013-08-02 05:43:00,
2013-08-01 21:53:00,67.0,-99.9,-100.00,NNE,21,0.0,4.0,-999,-99.99,,,-99.99,,2013-08-02 05:53:00,
2013-08-01 23:22:00,58.0,-99.9,-100.00,North,1,0.0,0.0,-999,-99.99,,,-99.99,,2013-08-02 07:22:00,
2013-08-01 23:33:00,58.0,-99.9,-100.00,North,1,0.0,0.0,-999,-99.99,,,-99.99,,2013-08-02 07:33:00,
2013-08-01 23:44:00,58.0,-99.9,-100.00,North,1,0.0,0.0,-999,-99.99,,,-99.99,,2013-08-02 07:44:00,
2013-08-01 23:53:00,58.0,-99.9,-100.00,North,1,0.0,0.0,-999,-99.99,,,-99.99,,2013-08-02 07:53:00,
2013-08-01 23:54:00,55.0,-99.9,-100.00,NNE,31,0.0,0.0,-999,-99.99,,,-99.99,,2013-08-02 07:54:00,